Tracking 27107 objects as of 20-Mar-2023
HD Live streaming from Space Station
objects crossing your sky now

COSMOS 1823 DEB

Track COSMOS 1823 DEB now!
10-day predictions


NORAD ID: 18757
Int'l Code: 1987-020AJ
Perigee: 1,119.8 km
Apogee: 1,250.6 km
Inclination: 73.7 °
Period: 108.9 minutes
Semi major axis: 7556 km
RCS: 0.0664 m2 (small)
Launch date: February 20, 1987
Source: Commonwealth of Independent States (former USSR) (CIS)
Launch site: PLESETSK MISSILE AND SPACE COMPLEX (PKMTR)

Note: This is SATELLITE DEBRIS
Your satellite tracking list
Your tracking list is empty




NASA's NSSDC Master Catalog

Two Line Element Set (TLE):
1 18757U 87020AJ  23079.38644260  .00007403  00000-0  17622-1 0  9992
2 18757  73.7259 307.3428 0086609 116.9513  57.0797 13.21746449651609
Source of the keplerian elements: AFSPC